ETD716 OTHH-VOTV

Flight info

Callsign ETD716
Flight time N/A
Altitude 35000
Route BUNDU3E/34R BUNDU B415 SIXIV N318 LABRI/N0459F370 N318 TOLDA P570 EMURU M300 MESAN/N0456F390 M300 VASTU P895 CIA DINKA
Aircraft A20N/M-SDE2E3FGHIRWXY/LB1

Departure

Time N/A
Airport Hamad International Airport (OTHH)

Arrival

Time 2026-05-05 12:48
Airport Thiruvananthapuram International Airport (VOTV)
Time Latitude Longitude Altitude Speed Heading
2026-05-05 11:08 23.69480 56.41174 34825 ft 520 kts 120°
2026-05-05 11:08 23.67791 56.44670 34830 ft 520 kts 120°
2026-05-05 11:09 23.64414 56.51655 34830 ft 520 kts 120°
2026-05-05 11:09 23.57925 56.65050 34823 ft 520 kts 120°
2026-05-05 11:10 23.51113 56.79069 34826 ft 519 kts 120°
2026-05-05 11:10 23.44396 56.92855 34840 ft 519 kts 120°
2026-05-05 11:11 23.37610 57.06743 34847 ft 519 kts 120°
2026-05-05 11:11 23.31219 57.20825 34858 ft 519 kts 117°
2026-05-05 11:12 23.24846 57.34900 34865 ft 519 kts 118°
2026-05-05 11:12 23.18447 57.48944 34853 ft 519 kts 118°
2026-05-05 11:13 23.12026 57.63003 34858 ft 519 kts 118°
2026-05-05 11:13 23.05592 57.77046 34838 ft 516 kts 118°
2026-05-05 11:14 22.99166 57.91035 34804 ft 518 kts 118°
2026-05-05 11:14 22.92717 58.05023 34792 ft 518 kts 118°
2026-05-05 11:15 22.86292 58.18920 34800 ft 518 kts 118°
2026-05-05 11:15 22.79809 58.32904 34791 ft 518 kts 117°
2026-05-05 11:16 22.73317 58.46867 34786 ft 518 kts 117°
2026-05-05 11:16 22.66158 58.60303 34784 ft 514 kts 136°
2026-05-05 11:16 22.60485 58.64895 34793 ft 508 kts 152°
2026-05-05 11:17 22.54439 58.68858 34791 ft 508 kts 151°
2026-05-05 11:17 22.42357 58.76830 34798 ft 508 kts 151°
2026-05-05 11:18 22.30285 58.84764 34802 ft 507 kts 151°
2026-05-05 11:18 22.19378 58.94365 34807 ft 513 kts 130°
2026-05-05 11:19 22.10284 59.06196 34806 ft 510 kts 131°
2026-05-05 11:19 22.01260 59.17861 34806 ft 509 kts 131°
2026-05-05 11:20 21.92182 59.29576 34805 ft 509 kts 131°
2026-05-05 11:20 21.83105 59.41263 34802 ft 508 kts 131°
2026-05-05 11:21 21.74045 59.52905 34798 ft 506 kts 131°
2026-05-05 11:21 21.65001 59.64500 34798 ft 506 kts 131°
2026-05-05 11:22 21.57482 59.74121 34798 ft 505 kts 131°
2026-05-05 11:22 21.48423 59.85651 34800 ft 505 kts 131°
2026-05-05 11:23 21.39361 59.97141 34797 ft 504 kts 131°
2026-05-05 11:23 21.30289 60.08623 34803 ft 504 kts 131°
2026-05-05 11:24 21.21233 60.20069 34805 ft 503 kts 131°
2026-05-05 11:24 21.12179 60.31528 34806 ft 503 kts 131°
2026-05-05 11:25 21.03100 60.42988 34807 ft 503 kts 131°
2026-05-05 11:25 20.95983 60.51957 34807 ft 502 kts 131°
2026-05-05 11:26 20.86933 60.63338 34810 ft 503 kts 131°
2026-05-05 11:26 20.77865 60.74719 34809 ft 502 kts 131°
2026-05-05 11:27 20.68808 60.86064 34809 ft 501 kts 131°
2026-05-05 11:27 20.60057 60.97653 34814 ft 502 kts 122°
2026-05-05 11:28 20.52575 61.10231 34813 ft 502 kts 123°
2026-05-05 11:28 20.45063 61.22790 34816 ft 502 kts 123°
2026-05-05 11:29 20.37544 61.35332 34817 ft 502 kts 123°
2026-05-05 11:29 20.31861 61.44794 34811 ft 502 kts 123°
2026-05-05 11:30 20.28094 61.51057 34814 ft 502 kts 123°
2026-05-05 11:30 20.24347 61.57280 34817 ft 502 kts 123°
2026-05-05 11:31 20.20573 61.63541 34815 ft 502 kts 123°
2026-05-05 11:31 20.16800 61.69795 34815 ft 502 kts 123°
2026-05-05 11:32 20.13022 61.76050 34813 ft 502 kts 123°
2026-05-05 11:32 20.09237 61.82309 34815 ft 502 kts 123°
2026-05-05 11:33 20.05453 61.88560 34817 ft 502 kts 123°
2026-05-05 11:33 20.01669 61.94805 34819 ft 503 kts 123°
2026-05-05 11:34 19.96192 62.03833 34817 ft 503 kts 123°
2026-05-05 11:34 19.88604 62.16315 34818 ft 503 kts 123°
2026-05-05 11:35 19.81004 62.28793 34819 ft 503 kts 123°
2026-05-05 11:35 19.73387 62.41271 34820 ft 503 kts 123°
2026-05-05 11:36 19.65766 62.53731 34821 ft 503 kts 124°
2026-05-05 11:36 19.59412 62.64098 34820 ft 504 kts 123°
2026-05-05 11:37 19.51765 62.76554 34827 ft 504 kts 124°
2026-05-05 11:37 19.44109 62.88996 34828 ft 504 kts 124°
2026-05-05 11:38 19.35198 63.03445 34827 ft 504 kts 124°
2026-05-05 11:38 19.24232 63.21182 34826 ft 504 kts 124°
2026-05-05 11:39 19.13442 63.38585 34827 ft 504 kts 124°
2026-05-05 11:39 19.05746 63.50967 34822 ft 504 kts 124°
2026-05-05 11:40 18.98094 63.63257 34826 ft 504 kts 124°
2026-05-05 11:40 18.90385 63.75611 34823 ft 503 kts 124°
2026-05-05 11:41 18.82669 63.87958 34823 ft 503 kts 124°
2026-05-05 11:41 18.74948 64.00287 34822 ft 504 kts 124°
2026-05-05 11:42 18.67217 64.12610 34819 ft 504 kts 124°
2026-05-05 11:42 18.59471 64.24930 34819 ft 504 kts 124°
2026-05-05 11:43 18.51723 64.37231 34824 ft 503 kts 124°
2026-05-05 11:43 18.43976 64.49506 34826 ft 502 kts 124°
2026-05-05 11:44 18.36239 64.61741 34829 ft 502 kts 124°
2026-05-05 11:44 18.28489 64.73974 34833 ft 502 kts 124°
2026-05-05 11:45 18.20742 64.86179 34831 ft 502 kts 124°
2026-05-05 11:45 18.12975 64.98393 34840 ft 502 kts 124°
2026-05-05 11:46 18.05214 65.10574 34842 ft 501 kts 124°
2026-05-05 11:46 17.97442 65.22750 34840 ft 501 kts 124°
2026-05-05 11:47 17.89668 65.34907 34840 ft 502 kts 124°
2026-05-05 11:47 17.81939 65.46970 34843 ft 500 kts 124°
2026-05-05 11:48 17.70280 65.65126 34844 ft 500 kts 124°
2026-05-05 11:48 17.62500 65.77218 34845 ft 499 kts 124°
2026-05-05 11:49 17.54933 65.89414 34845 ft 499 kts 122°
2026-05-05 11:49 17.47413 66.01626 34851 ft 498 kts 123°
2026-05-05 11:50 17.39877 66.13810 34851 ft 498 kts 123°
2026-05-05 11:50 17.32302 66.26038 34850 ft 498 kts 123°
2026-05-05 11:51 17.24818 66.38097 34852 ft 497 kts 123°
2026-05-05 11:51 17.17280 66.50221 34853 ft 497 kts 123°
2026-05-05 11:52 17.09737 66.62332 34854 ft 496 kts 123°
2026-05-05 11:52 17.02187 66.74431 34852 ft 497 kts 123°
2026-05-05 11:53 16.94643 66.86502 34853 ft 496 kts 123°
2026-05-05 11:53 16.87100 66.98549 34857 ft 496 kts 123°
2026-05-05 11:54 16.79547 67.10590 34859 ft 496 kts 123°
2026-05-05 11:54 16.71985 67.22627 34857 ft 496 kts 123°
2026-05-05 11:55 16.64423 67.34642 34857 ft 495 kts 123°
2026-05-05 11:55 16.56920 67.46543 34857 ft 495 kts 123°
2026-05-05 11:56 16.49358 67.58518 34857 ft 494 kts 123°
2026-05-05 11:56 16.36384 67.79013 34856 ft 494 kts 123°
2026-05-05 11:57 16.21277 68.02899 34859 ft 493 kts 123°
2026-05-05 11:57 16.06229 68.26794 34863 ft 493 kts 123°
2026-05-05 11:58 15.91184 68.50596 34869 ft 493 kts 123°
2026-05-05 11:58 15.76092 68.74398 34848 ft 493 kts 123°
2026-05-05 11:59 15.61010 68.98105 34877 ft 492 kts 123°
2026-05-05 11:59 15.45911 69.21765 34878 ft 492 kts 123°
2026-05-05 12:00 15.30774 69.45411 34868 ft 491 kts 123°
2026-05-05 12:00 15.15635 69.68987 34854 ft 490 kts 123°
2026-05-05 12:01 15.00720 69.92404 34851 ft 489 kts 122°
2026-05-05 12:01 14.85696 70.16011 34852 ft 487 kts 122°
2026-05-05 12:02 14.70778 70.39380 34861 ft 486 kts 123°
2026-05-05 12:02 14.55654 70.63010 34841 ft 483 kts 123°
2026-05-05 12:03 14.44639 70.80173 34851 ft 482 kts 123°
2026-05-05 12:03 14.37226 70.91700 34851 ft 482 kts 123°
2026-05-05 12:04 14.29873 71.03267 34849 ft 481 kts 122°
2026-05-05 12:04 14.22573 71.14837 34844 ft 481 kts 123°
2026-05-05 12:05 14.15272 71.26373 34846 ft 481 kts 123°
2026-05-05 12:05 14.07961 71.37908 34843 ft 481 kts 123°
2026-05-05 12:06 14.00633 71.49455 34841 ft 481 kts 123°
2026-05-05 12:06 13.93306 71.60982 34842 ft 481 kts 123°
2026-05-05 12:07 13.85974 71.72503 34843 ft 481 kts 123°
2026-05-05 12:07 13.78641 71.84009 34839 ft 481 kts 123°
2026-05-05 12:08 13.71291 71.95525 34841 ft 481 kts 123°
2026-05-05 12:08 13.63269 72.06514 34839 ft 481 kts 129°
2026-05-05 12:09 13.54830 72.17203 34835 ft 481 kts 129°
2026-05-05 12:09 13.46391 72.27871 34838 ft 481 kts 129°
2026-05-05 12:10 13.37945 72.38531 34838 ft 481 kts 129°
2026-05-05 12:10 13.29494 72.49184 34834 ft 481 kts 129°
2026-05-05 12:11 13.18656 72.62827 34832 ft 481 kts 129°
2026-05-05 12:11 13.01903 72.83876 34832 ft 479 kts 129°
2026-05-05 12:12 12.85004 73.05058 34824 ft 478 kts 130°
2026-05-05 12:12 12.68169 73.26109 34830 ft 478 kts 130°
2026-05-05 12:13 12.51299 73.47157 34832 ft 478 kts 130°
2026-05-05 12:13 12.34437 73.68148 34811 ft 478 kts 130°
2026-05-05 12:14 12.17523 73.89155 34829 ft 477 kts 130°
2026-05-05 12:14 12.00619 74.10102 34839 ft 478 kts 130°
2026-05-05 12:15 11.83621 74.31122 34819 ft 480 kts 130°
2026-05-05 12:15 11.66573 74.52158 34815 ft 481 kts 129°
2026-05-05 12:16 11.49532 74.73138 34825 ft 479 kts 129°
2026-05-05 12:16 11.32677 74.93853 34817 ft 476 kts 129°
2026-05-05 12:17 11.15665 75.14710 34815 ft 476 kts 129°
2026-05-05 12:17 10.98691 75.35487 34796 ft 479 kts 130°
2026-05-05 12:18 10.88745 75.47640 34821 ft 481 kts 130°
2026-05-05 12:18 10.80240 75.58020 34820 ft 481 kts 129°
2026-05-05 12:19 10.71664 75.68474 34819 ft 480 kts 129°
2026-05-05 12:19 10.63106 75.78896 34822 ft 480 kts 129°
2026-05-05 12:20 10.54565 75.89288 34820 ft 479 kts 129°
2026-05-05 12:20 10.46017 75.99682 34820 ft 479 kts 129°
2026-05-05 12:21 10.37480 76.10051 34803 ft 478 kts 129°
2026-05-05 12:21 10.33229 76.15212 33881 ft 476 kts 129°
2026-05-05 12:21 10.28964 76.20388 32074 ft 477 kts 130°
2026-05-05 12:22 10.26162 76.23787 31232 ft 472 kts 130°
2026-05-05 12:22 10.21985 76.28851 30006 ft 464 kts 130°
2026-05-05 12:22 10.17874 76.33832 28675 ft 456 kts 130°
2026-05-05 12:22 10.13979 76.38514 27452 ft 448 kts 134°
2026-05-05 12:23 10.11637 76.40572 26811 ft 443 kts 146°
2026-05-05 12:23 10.08937 76.42045 26191 ft 439 kts 159°
2026-05-05 12:23 10.06017 76.42859 25590 ft 434 kts 172°
2026-05-05 12:23 10.03028 76.42950 25245 ft 423 kts 186°
2026-05-05 12:24 10.00111 76.42534 25149 ft 428 kts 190°
2026-05-05 12:24 9.97164 76.41989 25056 ft 431 kts 191°
2026-05-05 12:24 9.94213 76.41417 24962 ft 430 kts 191°
2026-05-05 12:24 9.91288 76.40844 24866 ft 428 kts 191°
2026-05-05 12:25 9.88358 76.40269 24807 ft 428 kts 191°
2026-05-05 12:25 9.85433 76.39694 24800 ft 428 kts 191°
2026-05-05 12:25 9.82502 76.39159 24784 ft 429 kts 188°
2026-05-05 12:25 9.79526 76.39073 24708 ft 428 kts 177°
2026-05-05 12:26 9.76484 76.39327 22500 ft 459 kts 175°
2026-05-05 12:26 9.73173 76.39719 20258 ft 495 kts 173°
2026-05-05 12:26 9.69800 76.40160 19680 ft 481 kts 173°
2026-05-05 12:26 9.66520 76.40606 18952 ft 472 kts 173°
2026-05-05 12:27 9.63288 76.41048 18138 ft 466 kts 173°
2026-05-05 12:27 9.60102 76.41562 17224 ft 460 kts 171°
2026-05-05 12:27 9.57003 76.42117 17071 ft 438 kts 170°
2026-05-05 12:27 9.54133 76.42750 17247 ft 409 kts 167°
2026-05-05 12:28 9.51509 76.43504 17427 ft 384 kts 163°
2026-05-05 12:28 9.49065 76.44388 17560 ft 362 kts 159°
2026-05-05 12:28 9.46830 76.45381 17669 ft 339 kts 155°
2026-05-05 12:28 9.44855 76.46442 17716 ft 303 kts 152°
2026-05-05 12:29 9.43112 76.47351 17925 ft 262 kts 156°
2026-05-05 12:29 9.41547 76.48127 17662 ft 246 kts 154°
2026-05-05 12:29 9.40099 76.48901 17565 ft 216 kts 152°
2026-05-05 12:29 9.38894 76.49636 17468 ft 194 kts 149°
2026-05-05 12:30 9.37695 76.50427 16875 ft 225 kts 148°
2026-05-05 12:30 9.36311 76.51195 17075 ft 235 kts 157°
2026-05-05 12:30 9.34612 76.51924 15787 ft 291 kts 160°
2026-05-05 12:30 9.32620 76.52600 14244 ft 312 kts 165°
2026-05-05 12:31 9.30468 76.53173 12618 ft 326 kts 166°
2026-05-05 12:31 9.28277 76.53821 11729 ft 315 kts 161°
2026-05-05 12:31 9.26370 76.54524 11857 ft 271 kts 158°
2026-05-05 12:31 9.24745 76.55228 11886 ft 238 kts 154°
2026-05-05 12:32 9.23311 76.55928 11646 ft 222 kts 153°
2026-05-05 12:32 9.21971 76.56607 11339 ft 210 kts 152°
2026-05-05 12:32 9.20721 76.57266 11175 ft 192 kts 151°
2026-05-05 12:32 9.19585 76.57890 10980 ft 180 kts 150°
2026-05-05 12:33 9.18478 76.58318 10830 ft 161 kts 173°
2026-05-05 12:33 9.17371 76.58432 10415 ft 166 kts 173°
2026-05-05 12:33 9.16165 76.58590 9840 ft 182 kts 171°
2026-05-05 12:33 9.14812 76.58807 8603 ft 218 kts 170°
2026-05-05 12:34 9.13185 76.59105 7050 ft 257 kts 169°
2026-05-05 12:34 9.11583 76.59476 7241 ft 211 kts 166°
2026-05-05 12:34 9.10288 76.59845 7439 ft 184 kts 162°
2026-05-05 12:34 9.09090 76.60182 7487 ft 173 kts 173°
2026-05-05 12:35 9.07909 76.60153 7561 ft 172 kts 189°
2026-05-05 12:35 9.06636 76.59893 7307 ft 206 kts 195°
2026-05-05 12:35 9.05026 76.59464 6196 ft 269 kts 197°
2026-05-05 12:35 9.03274 76.58973 5996 ft 250 kts 194°
2026-05-05 12:36 9.01605 76.58786 5819 ft 234 kts 181°
2026-05-05 12:36 9.00035 76.58947 5741 ft 218 kts 173°
2026-05-05 12:36 8.98594 76.59145 5799 ft 200 kts 173°
2026-05-05 12:36 8.97266 76.59313 5827 ft 186 kts 174°
2026-05-05 12:37 8.95988 76.59459 5836 ft 185 kts 175°
2026-05-05 12:37 8.94706 76.59587 5797 ft 192 kts 175°
2026-05-05 12:37 8.93342 76.59704 5557 ft 197 kts 176°
2026-05-05 12:37 8.91953 76.59809 5272 ft 207 kts 175°
2026-05-05 12:38 8.90523 76.60164 4997 ft 217 kts 159°
2026-05-05 12:38 8.89151 76.60844 4742 ft 222 kts 150°
2026-05-05 12:38 8.87832 76.61674 4485 ft 225 kts 146°
2026-05-05 12:38 8.86512 76.62643 4259 ft 243 kts 142°
2026-05-05 12:39 8.85221 76.63702 4082 ft 226 kts 141°
2026-05-05 12:39 8.83926 76.64468 3856 ft 210 kts 160°
2026-05-05 12:39 8.82579 76.64928 3680 ft 198 kts 159°
2026-05-05 12:39 8.81412 76.65612 3537 ft 191 kts 146°
2026-05-05 12:40 8.80322 76.66437 3211 ft 194 kts 142°
2026-05-05 12:40 8.79297 76.67279 3058 ft 187 kts 142°
2026-05-05 12:40 8.78257 76.68063 2838 ft 187 kts 146°
2026-05-05 12:40 8.77150 76.68803 2483 ft 193 kts 147°
2026-05-05 12:41 8.76039 76.69553 2327 ft 187 kts 147°
2026-05-05 12:41 8.74975 76.70274 2245 ft 185 kts 148°
2026-05-05 12:41 8.73925 76.70995 2159 ft 182 kts 147°
2026-05-05 12:41 8.72865 76.71750 1920 ft 186 kts 146°
2026-05-05 12:42 8.71805 76.72504 1693 ft 188 kts 146°
2026-05-05 12:42 8.70721 76.73256 1442 ft 190 kts 147°
2026-05-05 12:42 8.69647 76.73991 1377 ft 180 kts 147°
2026-05-05 12:42 8.68649 76.74687 1401 ft 170 kts 146°
2026-05-05 12:43 8.67707 76.75381 1393 ft 166 kts 145°
2026-05-05 12:43 8.66783 76.76132 1169 ft 176 kts 144°
2026-05-05 12:43 8.65746 76.76893 1012 ft 183 kts 148°
2026-05-05 12:43 8.64701 76.77605 919 ft 187 kts 146°
2026-05-05 12:44 8.63703 76.78416 977 ft 180 kts 140°
2026-05-05 12:44 8.62821 76.79278 1066 ft 172 kts 139°
2026-05-05 12:44 8.61930 76.80085 996 ft 175 kts 141°
2026-05-05 12:44 8.60991 76.80901 933 ft 180 kts 140°
2026-05-05 12:45 8.60059 76.81776 836 ft 184 kts 137°
2026-05-05 12:45 8.59133 76.82654 762 ft 180 kts 140°
2026-05-05 12:45 8.58130 76.83510 746 ft 194 kts 143°
2026-05-05 12:45 8.57095 76.84313 740 ft 185 kts 146°
2026-05-05 12:46 8.56085 76.85123 712 ft 185 kts 141°
2026-05-05 12:46 8.55132 76.85973 724 ft 180 kts 140°
2026-05-05 12:46 8.54118 76.86699 750 ft 178 kts 154°
2026-05-05 12:46 8.53045 76.87385 614 ft 188 kts 140°
2026-05-05 12:47 8.52043 76.88223 633 ft 186 kts 142°
2026-05-05 12:47 8.51092 76.89107 594 ft 181 kts 134°
2026-05-05 12:47 8.50240 76.90019 317 ft 178 kts 133°
2026-05-05 12:47 8.49334 76.90914 125 ft 180 kts 139°
2026-05-05 12:48 8.48489 76.91707 26 ft 148 kts 136°
2026-05-05 12:48 8.47993 76.92189 27 ft 32 kts 135°
2026-05-05 12:48 8.47879 76.92330 27 ft 25 kts 104°
2026-05-05 12:48 8.47867 76.92451 28 ft 0 kts 95°
2026-05-05 12:49 8.47867 76.92453 28 ft 2 kts 95°
2026-05-05 12:49 8.47890 76.92500 28 ft 14 kts 32°
2026-05-05 12:49 8.47990 76.92437 27 ft 23 kts 317°
2026-05-05 12:49 8.48132 76.92308 28 ft 33 kts 317°
2026-05-05 12:50 8.48317 76.92129 27 ft 40 kts 315°
2026-05-05 12:50 8.48446 76.92001 25 ft 8 kts 317°
2026-05-05 12:50 8.48487 76.92009 27 ft 8 kts 40°
2026-05-05 12:50 8.48536 76.92057 25 ft 12 kts 45°
2026-05-05 12:51 8.48600 76.92127 26 ft 15 kts 50°
2026-05-05 12:51 8.48629 76.92159 27 ft 0 kts 45°